Regional Weather Roundup
Issued by NWS

Home | Current Version | Previous Version | Graphics & Text | Print | Product List | Glossary Off
Versions: 1 2 3 4 5 6 7 8 9 10 11 12 13 14 15 16 17 18 19 20 21 22 23 24 25 26 27 28 29 30 31 32 33 34 35 36 37 38 39 40 41 42 43 44 45 46 47 48 49 50

000
ASUS45 KPSR 042010
RWRAZ

ARIZONA HOURLY REGIONAL WEATHER ROUNDUP
NATIONAL WEATHER SERVICE PHOENIX AZ
100 PM MST SUN DEC 04 2016

NOTE: FAIR INDICATES FEW OR NO CLOUDS BELOW 12,000 FEET WITH NO
SIGNIFICANT WEATHER AND/OR OBSTRUCTIONS TO VISIBILITY.

AZZ001>003-036-042100-
NORTHWEST ARIZONA

CITY           SKY/WX    TMP DP  RH WIND       PRES   REMARKS
BULLHEAD CITY  SUNNY     64  16  15 N22G28    30.07F
KINGMAN        SUNNY     58   5  12 N8        30.10F
$$

AZZ004>008-015-016-018-042100-
NORTH CENTRAL ARIZONA

CITY           SKY/WX    TMP DP  RH WIND       PRES   REMARKS
GRAND CANYON   SUNNY     47  21  35 SW8       30.14F
PRESCOTT       SUNNY     54   9  16 CALM      30.11F
FLAGSTAFF      SUNNY     47  -1  13 E10       30.15F
PAYSON         SUNNY     55   9  15 W6        30.12F
PAGE           SUNNY     43  12  28 E3        30.15F
$$

AZZ009>014-017-042100-
NORTHEAST ARIZONA

CITY           SKY/WX    TMP DP  RH WIND       PRES   REMARKS
WINSLOW        SUNNY     45  11  25 CALM      30.17F
SAINT JOHNS    SUNNY     45  17  32 VRB3      30.14F
WINDOW ROCK    SUNNY     44  16  32 S7        30.13F
SHOW LOW       SUNNY     39  10  30 N9        30.14F WCI  33
$$

AZZ023-042100-
GREATER PHOENIX AREA

CITY           SKY/WX    TMP DP  RH WIND       PRES   REMARKS
PHOENIX        SUNNY     66  15  14 CALM      30.01F
BUCKEYE        SUNNY     64  25  22 S3        30.04F
GLENDALE       SUNNY     64  18  16 VRB5      30.04F
LUKE AFB       SUNNY     65  19  17 S5        30.01F
DEER VALLEY    SUNNY     64  16  15 CALM      30.01F
SCOTTSDALE     SUNNY     65  14  14 CALM      30.03F
MESA-FALCON    SUNNY    N/A N/A N/A NW12      30.00F
MESA-GATEWAY   SUNNY     63  18  17 SW5       30.04F
CHANDLER       SUNNY     64  16  15 CALM      30.03F
$$

AZZ027-028-042100-
SOUTHWEST MARICOPA COUNTY AND PINAL COUNTY

CITY           SKY/WX    TMP DP  RH WIND       PRES   REMARKS
CASA GRANDE    NOT AVBL
GILA BEND      SUNNY     64  16  15 N6        30.02F
$$

AZZ503-504-507>509-042100-
SOUTHEAST ARIZONA

CITY           SKY/WX    TMP DP  RH WIND       PRES   REMARKS
TUCSON         SUNNY     63  28  26 NW12      30.03F
DAVIS-MONTHAN  SUNNY     61  27  27 N7        30.02F
RYAN FIELD     SUNNY     63  30  29 NW9       30.03F
NOGALES        SUNNY     64  28  25 VRB7      29.99F
SIERRA VISTA   SUNNY     59  21  23 NE5       30.05F
DOUGLAS        SUNNY     58  24  27 E16       30.04F
SAFFORD        SUNNY     57  24  28 E5        30.05F
$$

AZZ020-021-025-026-031-042100-
SOUTHWEST ARIZONA

CITY           SKY/WX    TMP DP  RH WIND       PRES   REMARKS
YUMA           SUNNY     70  14  11 N15       30.04F
$$

CAZ031-033-041-043-047-048-061-042100-
SOUTHERN CALIFORNIA

CITY           SKY/WX    TMP DP  RH WIND       PRES   REMARKS
DOWNTOWN L.A.  SUNNY     68  38  33 CALM      30.03F
L.A. AIRPORT   MOSUNNY   65  43  44 W8        30.05F
SAN DIEGO      MOSUNNY   68  27  21 NW8       30.04F
BURBANK        SUNNY     71  21  15 SE6       30.04F
ONTARIO        MOSUNNY   69  22  16 S5        30.04F
RIVERSIDE      SUNNY     71  27  19 W6        30.04F
PALM SPRINGS   SUNNY     70  19  14 E6        30.06F
EL CENTRO NAS  SUNNY     73  13  10 SE5       30.05F
IMPERIAL       SUNNY     72  19  13 VRB3      30.03F
BLYTHE         SUNNY     69  11  10 N14       30.06F
NEEDLES        SUNNY     67  19  16 N6        30.07F
$$

NVZ020-UTZ003-042100-
SOUTHERN NEVADA-UTAH

CITY           SKY/WX    TMP DP  RH WIND       PRES   REMARKS
LAS VEGAS      MOSUNNY   56  12  17 NE5       30.11F
SALT LAKE CITY PTSUNNY   39  20  46 SE15      30.03F WCI  31
$$

NMZ009-TXZ055-042100-
NEW MEXICO-WEST TEXAS

CITY           SKY/WX    TMP DP  RH WIND       PRES   REMARKS
ALBUQUERQUE    SUNNY     45  13  27 VRB3      30.12F
EL PASO        MOSUNNY   54  26  34 N9        30.05F
$$


........................KEY........................
SKY/WX - SKY CONDITION/WEATHER
TMP    - TEMPERATURE IN FAHRENHEIT
DP     - DEW POINT IN FAHRENHEIT
RH     - RELATIVE HUMIDITY IN PERCENT
WIND   - DIRECTION AND SPEED IN MILES PER HOUR (MPH)
VRB    - VARIABLE WIND DIRECTION
PRES   - MEAN SEA LEVEL PRESSURE IN INCHES OF MERCURY
         F - FALLING PRESSURE   R - RISING PRESSURE
         S - STEADY PRESSURE
VSB    - VISIBILITY IN MILES
HX     - HEAT INDEX IN FAHRENHEIT
WCI    - WIND CHILL INDEX IN FAHRENHEIT
TC     - TEMPERATURE IN CELSIUS WHICH IS ALSO KNOWN AS
         TEMPERATURE IN CENTIGRADE
AFB    - AIR FORCE BASE
         LUKE AFB IS LUKE AIR FORCE BASE
         DAVIS-MONTHAN IS DAVIS-MONTHAN AIR FORCE BASE
NAS    - NAVAL AIR STATION
         EL CENTRO NAS IS EL CENTRO NAVAL AIR STATION
N/A    - NOT AVAILABLE




USA.gov is the U.S. government's official web portal to all federal, state and local government web resources and services.